{"data":{"norad_id":52610,"intl_designator":"2022-052N","name":"STARLINK-3998","alt_names":[],"object_type":"PAYLOAD","status":"ACTIVE","operator":null,"country":"US","launch_date":"2022-05-14","launch_site_code":"AFETR","launch_vehicle":null,"mission":null,"orbit_class":"UNKNOWN","rcs_meters":null,"size_class":null,"mass_kg":null,"dimensions":null,"purposes":["comms"],"wikipedia_slug":null,"has_3d_model":false,"image_url":null,"decayed_at":null,"tle_current":{"epoch":"2026-09-20T04:08:50.308800Z","epoch_age_seconds":91550,"freshness":"FRESH","line1":"1 52610U 22052N   26263.17280450 -.00000871  00000+0 -14064-4 0  9997","line2":"2 52610  53.1590 117.8233 0001184  93.7519 266.3619 15.35383894240314","mean_motion":15.35383894,"eccentricity":0.0001184,"inclination_deg":53.159,"raan_deg":117.8233,"arg_perigee_deg":93.7519,"mean_anomaly_deg":266.3619,"bstar":-1.4064e-5,"rev_number":24031,"period_min":93.787619215446,"perigee_km":458.97085220608,"apogee_km":460.59007106099,"semimajor_km":6837.9174616335,"source":"CELESTRAK","updated_at":"2026-09-20T09:00:40.070023Z"}}}